Location: Township of South Roscoe
(37.9570°N, 100.1180°W)
Time: 05:00:34
(UTC+00:00)

Envisat - Visible Passes

Search period start: 25 January 2022 00:00
Search period end: 04 February 2022 00:00
Orbit: 764 x 766 km, 98.2° (Epoch: 24 January)

Date Brightness Start Highest point End Pass type
(mag) Time Alt. Az. Time Alt. Az. Time Alt. Az.
25 Jan 2.8 11:40:40 10° N 11:45:45 81° WNW 11:50:50 10° SSW visible
26 Jan 4.0 11:04:00 10° NNE 11:08:51 43° E 11:13:40 10° S visible
26 Jan 4.2 12:43:50 10° NNW 12:47:32 21° WNW 12:51:13 10° WSW visible
27 Jan 5.4 10:28:11 10° NE 10:31:45 19° E 10:35:18 10° SE visible
27 Jan 3.2 12:06:07 10° N 12:10:57 45° WNW 12:15:45 10° SW visible
28 Jan 3.0 11:29:04 10° NNE 11:34:11 79° ESE 11:39:15 10° S visible
28 Jan 4.7 13:10:39 10° NW 13:12:28 12° WNW 13:14:18 10° W visible
29 Jan 4.5 10:52:37 10° NNE 10:57:12 34° E 11:01:46 10° SSE visible
29 Jan 3.9 12:31:53 10° NNW 12:36:03 26° WNW 12:40:11 10° WSW visible
30 Jan 5.7 10:17:17 10° ENE 10:20:03 15° E 10:22:47 10° SE visible
30 Jan 2.9 11:54:24 10° N 11:59:24 58° WNW 12:04:22 10° SSW visible
31 Jan 3.4 11:17:32 10° NNE 11:22:34 61° E 11:27:34 10° S visible
31 Jan 4.5 12:58:10 10° NNW 13:01:02 15° WNW 13:03:53 10° W visible
01 Feb 4.9 10:41:18 10° NE 10:45:32 26° E 10:49:45 10° SSE visible
01 Feb 3.6 12:20:01 10° N 12:24:32 33° WNW 12:29:02 10° SW visible
02 Feb 6.0 10:07:03 10° ENE 10:08:19 11° E 10:09:36 10° ESE visible
02 Feb 2.8 11:42:45 10° N 11:47:50 75° WNW 11:52:53 10° SSW visible
03 Feb 3.9 11:06:03 10° NNE 11:10:57 47° E 11:15:49 10° S visible
03 Feb 4.2 12:46:02 10° NNW 12:49:35 19° WNW 12:53:07 10° WSW visible
